Погода Агинское

Погода Агинское : погода сейчас, прогноз погоды и архив. Всё, что Вы хотите узнать о погоде Агинское!

Хотите узнать прогноз погоды Агинское? Тогда Вам сюда: Погода Агинское

Поиск расширенной информации на нашем сайте:

Другие новости

Новости СМИ2

Главная страница сайта

Новости сайта

02.10.2013

Напоминаем, что на нашем новом сайте вы можете получить высокодетализированные прогнозы погоды по пунктам России, СНГ и мира (включающие важные для авиации метеовеличины, такие как направление и скорость ветра, видимость, явления погоды, количество и форма облачности, нижняя и верхняя граница облачности), а также ознакомиться с разнообразными материалами по авиационной метеорологии и подборкой полезных ссылок на эту тему.

Сайт Метеоцентр.Азия посвящён разработке технологий оптимизации авиаметеорологического обслуживания, включая проектирование и перспективное создание нескольких автоматизированных авиаметеорологических систем:
- система выпуска высокодетальных прогностических карт явлений погоды для нижнего воздушного пространства по России и ближнему зарубежью;
- система верификации прогнозов TAF (выпускаемых синоптиками официальных АМСГ РФ и ближнего зарубежья) и AUTOTAF (выпускаемых сайтом Метеоцентр.Азия) - выявление ошибок, онлайн-сопоставление с фактической погодой METAR, автоматическое внесение коррективов в прогнозы при резком отклонении фактической погоды от прогноза, подсчёт оправдываемости прогнозов по элементам и в целом;
- система обработки, анализа и отображения авиаметеорологической информации для применения провайдерами метеорологической информации.

Рекомендуем: Сравнить цены на полиграфические и дизайнерские услуги www.poli33.ru.

Погода Агинское - сегодня

Время (UTC), дата Ветер
(°,м/с) 
Видим.   Явления Облачность Т
(°С)
Тd
(°С)
f(%) Тe
(°С)
Pmin
(гПа)
dP
(гПа)
Po
(мм)
O2
(г/м3)
Тmin Tmax R s Состояние
почвы
18 23.05.17 тихо ()   20000 м    10/0 верхняя 
[Cs]
+7.6 +5.7 88 +8  1006.6  -0.8  725  283           
21 23.05.17 040 (СВ) 20000 м    10/0 верхняя 
[Cs]
+4.6 +3.8 95 +5  1006.6  -0.4  725  286           
00 24.05.17 тихо ()   20000 м    6/0 верхняя 
[Cs]
+13.2 +7.6 69 +13  1004.4  -0.9  724  277  +4         
03 24.05.17 260 (З) 6-12{12}  20000 м    4/0 верхняя 
[Cs]
+30.9 +0.1 14 +31  1000.6  -1.5  723  261           
06 24.05.17 290 (З) 6-12{16}  20000 м    8/5 1000 м верхняя 
[Sc|Ci]
+31.2 +5.3 20 +31  1000.6  0.1  723  261           
09 24.05.17 280 (З) 6-11{17}  20000 м    9/9 900 м кучево-дожд. 
[Cb cap]
+28.5 +6.7 25 +29  1002  724  263           
12 24.05.17 300 (СЗ) 4-10{14}  20000 м    9/9 2000 м средняя 
[Ac As]
+25.7 +4.1 25 +26  1003.7  1.3  725  266    +32.1       
15 24.05.17 320 (СЗ) 1{10}  20000 м    9/9 2000 м средняя 
[Ac As]
+21.5 +5.6 35 +22  1005.2  0.9  725  270           
18 24.05.17 170 (Ю) 20000 м    4/4 1000 м 
[Sc]
+14.1 +8.2 68 +15  1005.4  -0.7  725  276           
21 24.05.17 160 (Ю) 20000 м    3/3 1000 м 
[Cu Sc]
+11.2 +7.5 78 +12  1005.6  -0.3  724  279           
00 25.05.17 190 (Ю) 20000 м    4/3 2000 м средняя, верхняя 
[Ac lent|Ci fib]
+20.1 +10 52 +22  1003.8  -0.4  724  270  +9.8        сухая 
03 25.05.17 280 (З) 4-10{12}  20000 м    8/3 600 м кучево-дожд., средняя, верхняя 
[Cb cap|Ac lent|Ci]
+24.7 +6.5 31 +25  1002.9  -0.3  724  266           
06 25.05.17 290 (З) 3{18}  20000 м    10/10 800 м 
+21.2 +7.6 41 +21  1004.8  1.3  725  270           
09 25.05.17 260 (З) 3{14}  4000 м  слаб. ливневой дождь  10/10 800 м кучево-дожд. 
[Cb cap]
+17.1 +10.9 67 +21  1006.6  1.3  726  273           
12 25.05.17 280 (З) 4000 м  слаб. ливневой дождь  9/9 750 м кучево-дожд. 
[Cb cap]
+14.5 +11.9 84 +20  1008.1  1.1  727  276    +25     
15 25.05.17 310 (СЗ) 20000 м  {ливн. осадки}  8/8 600 м кучево-дожд. 
[Cb cap]
+11.2 +7 75 +12  1012.3  3.5  729  281           
18 25.05.17 360 (С) 20000 м  {ливн. осадки}  3/0 верхняя 
[Ci fib]
+5.7 +4.5 92 +7  1014.5  1.3  730  287           
21 25.05.17 030 (СВ) 20000 м    3/3 2000 м средняя 
[Ac cast]
+2.2 +1.8 97 +3  1014.9  -0.1  730  292           
00 26.05.17 тихо ()   20000 м    8/5 1000 м средняя 
[Sc|Ac cast]
+6.7 +4.7 87 +7  1013.4  -0.8  730  286  +1.7    0.3    влажная 
03 26.05.17 250 (З) 5-16{16}  20000 м    6/6 600 м кучево-дожд. 
[Cb cap]
+16.2 +1.8 38 +16  1010.1  -1.9  728  277           
06 26.05.17 240 (ЮЗ) 5-12{16}  20000 м    8/8 870 м кучево-дожд. 
[Cb cap]
+17.8 -1.1 28 +18  1008.3  -1.5  727  275           
09 26.05.17 280 (З) 5-11{18}  20000 м  {ливн. осадки}  8/8 870 м кучево-дожд. 
[Cb cap]
+13.7 +3.1 49 +13  1011.6  2.6  729  279           
12 26.05.17 320 (СЗ) 4{13}  20000 м  {ливн. осадки}  3/3 1000 м 
[Cu hum]
+15.1 -4.3 26 +15  1013.7  2.2  731  279    +18.4  0.0     
15 26.05.17 320 (СЗ) 2{10}  20000 м    1/1 1000 м 
[Cu med, cong]
+8.4 -1.4 50 +8  1017.8  733  287           
18 26.05.17 320 (СЗ) 20000 м    3/3 600 м кучево-дожд. 
[Cb cap]
+4.6 -0.3 70 +5  1021.2  2.8  735  291           
Время (UTC), дата Ветер
(°,м/с) 
Видим.   Явления Облачность Т
(°С)
Тd
(°С)
f(%) Тe
(°С)
Pmin
(гПа)
dP
(гПа)
Po
(мм)
O2
(г/м3)
Тmin Tmax R s Состояние
почвы

Для получения пояснительной информации подведите курсор к названию столбца.

ПОГОДА Агинское - архив

Всё, что Вы хотите узнать о погоде Агинское - удобно и подробно!

Выберите нужную дату (начиная с 1 января 2015* года) и нажмите кнопку "Найти".
Будут отображены архивные сводки погоды по пункту Агинское, начиная с указанной даты.


Отображать данные в формате CSV (для использования в таблицах Excel)


Внимание! Наш архив погоды предназначен исключительно для личного некоммерческого использования в познавательных целях. Если Вам необходимы официальные справки о состоянии погоды (для производственных, юридических, коммерческих и т.п. целей), обращайтесь в органы Росгидромета.

*Примечание: данная дата относится к архиву по метеостанциям СССР (Россия, СНГ, Балтия).
Архив по метеостанциям Зарубежной Европы и Азии (кроме Китая) хранится 10 дней, по другим регионам земного шара (Китай, Африка, Америка, Австралия, Океания) - 1 день.

Агинское - район местоположения метеостанции


Название, широта, долгота, высота метеостанции:
Агинское 55.2°ш. 94.9°д. 337 м над ур. моря [Российская Федерация]

Дополнительная информация

В oтличие oт бoльшинства пoгoдных сайтoв мы публикуем пoдрoбную метеoинфoрмацию в детальнoм прoфессиoнальнoм фoрмате.

Характеристики температуры и влажнoсти вoздуха измеряются на высoте 2 м в тени вдали oт зданий и деревьев.
Скoрoсть ветра измеряется на высoте 10 м (на урoвне рoста челoвека скoрoсть ветра ниже в 1.5-2 раза). Если метеoстанция нахoдится в гoрoде или в лесу, тo скoрoсть ветра занижена на 2-4 м/с пo сравнению с oткрытым местoм. Скoрoсть ветра над акватoриями крупных рек и oзёр, а также на вершинах хoлмoв на 2-5 м/с выше, чем в oбычных услoвиях.
Атмoсфернoе давление в разных тoчках местнoсти мoжет значительнo oтличаться oт давления на метеoстанции, в зависимoсти oт услoвий рельефа (при пoдъёме на 10 м давление пoнижается примернo на 1 мм рт.ст.).